Location: Laan Hart van Zuid
(52.2563°N, 6.7904°E)
Time: 10:36:58
(UTC+02:00)

ISS - Pass Details

Date: 21 May 2024
Orbit: 411 x 419 km, 51.6° (Epoch: 29 May)

Event Time Altitude Azimuth Distance (km) Brightness Sun altitude
Rises 22:26:53 0° 279° (W) 2,373 1.0 -7.2°
Reaches altitude 10° 22:29:00 10° 276° (W) 1,506 -0.2 -7.4°
Maximum altitude 22:32:20 61° 195° (SSW) 481 -3.6 -7.7°
Drops below altitude 10° 22:35:39 10° 115° (ESE) 1,496 -1.5 -8.1°
Enters shadow 22:35:48 - 115° (ESE) 1,557 -1.4 -8.1°
